COSMOS 2251

导读

COSMOS 2251(宇宙2251)是苏联(CIS)于1993年6月16日发射的军用通信卫星,重约900千克,运行在近地轨道。该卫星退役后成为失控太空垃圾,2009年2月10日,它在西伯利亚上空约780公里处与美国铱星公司的铱33卫星相撞,这是人类历史上首次在轨卫星相撞事件,撞击产生了数千块太空碎片,推动了全球对太空垃圾治理和空间交通管理的重视。

Basic Information
目录编号:
22675
目录名称:
COSMOS 2251
国际标识:
1993-036A
轨道中心:
EARTH
卫星名称:
COSMOS 2251
卫星全名:
--
卫星状态:
在轨 (已飞行12054 天)
发射日期:
1993-06-16 UTC
国别 :
俄罗斯(独联体) (CIS)
星等 :
--
Orbit Information
数据来源 国际轨道数据
星历时间: 2026-06-17T20:44:02+0800
6小时前
查看轨道信息
半长轴: 7159.005km
偏心率: 0.0024602
轨道倾角: 74.040°
近地点辐角 11.523°
升交点赤经 334.583°
平近点角 348.648°
近地点: 763.255km
远地点: 798.481km
周期: 100.471分钟
每日圈数: 14.332561
Detailed Information
使用方式:
暂无
2D Orbit Map
3D Orbit Map
Orbit Altitude Analysis Chart
Orbit Inclination Analysis Chart
Orbit Comprehensive Analysis Chart
View Comprehensive Chart